Other Public Products
Issued by NWS Grand Forks, ND

Home | Current Version | Previous Version | Graphics & Text | Print | Product List | Glossary On
Versions: 1 2 3 4 5 6 7 8 9 10 11 12 13 14 15 16 17 18 19 20 21 22 23 24 25 26 27 28 29 30 31 32 33 34 35 36 37 38 39 40 41 42 43 44 45 46 47 48 49 50
000
FPUS83 KFGF 241610
OPUFGF
PRAIRIE TO PINES WEATHER ROUNDUP
NATIONAL WEATHER SERVICE EASTERN NORTH DAKOTA/GRAND FORKS ND
1100 AM CDT SUN MAY 24 2015

 **SATELLITE DATA USED TO AUGMENT SKY COVER AT AUTOMATED STATIONS**
 *****  WEATHER ACROSS EASTERN NORTH DAKOTA  *****

CITY           SKY/WX    TMP DP  RH WIND       PRES   REMARKS
GRAND FORKS    PTSUNNY   70  47  43 SE6       30.04F
GRAND FORKS AF MOSUNNY   70  47  44 SE7       30.04F
GRAND CITY NWS   N/A     68 N/A N/A E5          N/A
BUXTON         NOT AVBL
DEVILS LAKE    SUNNY     68  46  45 SE7       30.04S
FARGO          CLOUDY    67  48  50 E12       30.02F
WAHPETON ARPT  CLOUDY    63  46  55 E7        30.01F
$$

 *****  WEATHER ACROSS CENTRAL AND WESTERN NORTH DAKOTA  *****

CITY           SKY/WX    TMP DP  RH WIND       PRES   REMARKS
JAMESTOWN      PTSUNNY   67  50  54 NE10      30.02F
BISMARCK       CLOUDY    65  52  62 E12       30.02F
MINOT          SUNNY     67  47  48 E7        30.04F
MINOT AFB      MOSUNNY   71  49  45 SE6       30.03F
GARRISON         N/A     63  49  60 SE5       30.04F
WILLISTON      MOSUNNY   68  47  46 E3        30.04F
DICKINSON      CLOUDY    58  51  78 E10       30.02F
HETTINGER      LGT RAIN  54  52  93 E12       30.02F FOG
$$

 *****  OTHER OBSERVATIONS NORTHEAST NORTH DAKOTA  *****

CITY           SKY/WX    TMP DP  RH WIND       PRES   REMARKS
WALHALLA         N/A     73  45  35 SE3       30.04F
LANGDON        FAIR      75  41  29 SE13      30.05F
CAVALIER       FAIR      70  48  46 SE5       30.04F
GRAFTON        FAIR      70  48  46 SE3G12    30.05F
CANDO          FAIR      72  43  35 E7        30.05S
FORT TOTTEN    NOT AVBL
ROLLA            N/A     72  36  26 SE9       30.06F
RUGBY          NOT AVBL
 ***** THE ABOVE OBSERVATIONS ARE NON NWS ARE NOT QUALITY
        CONTROLLED AND MAY MIS-REPORT RAIN FOR SNOW...
$$

 *****  OTHER OBSERVATIONS SOUTHEAST NORTH DAKOTA *****

CITY           SKY/WX    TMP DP  RH WIND       PRES   REMARKS
COOPERSTOWN    NOT AVBL
VALLEY CITY    FAIR      66  48  52 E14       30.03F
OAKES            N/A     63  52  67 E14       29.99F
GWINNER        NOT AVBL
SHEYENNE NWR     N/A     65  52  62 NE8       29.95S
BUFFALO        NOT AVBL
WYNDMERE         N/A     66  48  52 E10         N/A
 ***** THE ABOVE OBSERVATIONS ARE NON NWS ARE NOT QUALITY
       CONTROLLED AND MAY MIS-REPORT RAIN FOR SNOW...
$$

  *****  WEATHER ACROSS NORTHERN MINNESOTA  *****

CITY           SKY/WX    TMP DP  RH WIND       PRES   REMARKS
FLAG ISLAND    SUNNY     57  50  77 S9        30.04S
WARROAD          N/A     72  52  49 CALM      30.05F HAZE
ROSEAU         SUNNY     72  48  43 SW5       30.05F
HALLOCK        SUNNY     72  45  37 S5        30.04F
THF RVR FALLS  PTSUNNY   70  46  43 SE6       30.06F
HALSTAD        NOT AVBL
FOSSTON        PTSUNNY   72  52  49 NE3       30.07F
BAUDETTE       SUNNY     73  45  36 VRB5      30.06F
WASKISH        MOSUNNY   66  52  59 CALM      30.07F
CROOKSTON      PTSUNNY   70  46  43 E8        30.06F
$$
  *****  WEATHER ACROSS CENTRAL AND WEST MINNESOTA  *****

CITY           SKY/WX    TMP DP  RH WIND       PRES   REMARKS
BEMIDJI        CLOUDY    67  46  46 SE6       30.07F
PARK RAPIDS    CLOUDY    64  47  53 E10       30.06F
WADENA         CLOUDY    63  48  59 E8        30.04S
DETROIT LAKES  CLOUDY    63  46  55 E7        30.06F
MOORHEAD       CLOUDY    64  50  59 E8        30.03F
FERGUS FALLS   CLOUDY    63  48  59 E7        30.01F
ELBOW LAKE     CLOUDY    61  50  66 E7        30.01F
MORRIS MN      DRIZZLE   61  54  77 E7        29.99F
STAPLES        CLOUDY    63  48  59 E5        30.04F
WHEATON        CLOUDY    61  52  72 E8        30.02F
$$
  *****  WEATHER ELSEWHERE ACROSS MINNESOTA  *****

CITY           SKY/WX    TMP DP  RH WIND       PRES   REMARKS
DULUTH         CLOUDY    68  44  42 E6        30.09F
INTRNTL FALLS  SUNNY     74  44  34 CALM      30.06F
ELY            MOSUNNY   72  41  33 CALM      30.08F
CLOQUET        CLOUDY    63  48  59 CALM      30.09F
BRAINERD       CLOUDY    64  49  57 E7        30.06F
HIBBING        PTSUNNY   71  41  33 S7        30.08F
ALEXANDRIA     CLOUDY    63  50  62 E10       30.02F
SAINT CLOUD    CLOUDY    61  53  75 VRB5      30.03S
MINNEAPOLIS    LGT RAIN  62  55  77 E9        30.03S
$$

  *****  WEATHER ACROSS SOUTH DAKOTA  *****

CITY           SKY/WX    TMP DP  RH WIND       PRES   REMARKS
SIOUX FALLS    CLOUDY    61  58  90 E10       29.90F
BROOKINGS      CLOUDY    59  55  88 E8        29.95F
WATERTOWN      CLOUDY    59  54  83 NE6       29.96F
HURON          LGT RAIN  59  58  96 E6G17     29.93F FOG
SISSETON         N/A     62  53  72 E8        29.98F
ABERDEEN       CLOUDY    64  52  64 NE8       29.96F
MITCHELL       LGT RAIN  61  59  93 NE8       29.91F FOG
PIERRE         CLOUDY    60  55  83 E13       29.92F
MOBRIDGE       CLOUDY    65  50  58 E16       29.94F
RAPID CITY     RAIN      53  52  96 E13       29.92F FOG
$$

  *****  SOME WEATHER IN NEARBY STATES *****

CITY           SKY/WX    TMP DP  RH WIND       PRES   REMARKS
GLASGOW MT     PTSUNNY   60  45  57 CALM      30.05F
GREAT FALLS MT CLOUDY    53  47  79 E6        30.09F
CHEYENNE WY    SUNNY     54  39  57 NW5       29.91S
SCOTTSBLUFF NE PTSUNNY   58  49  72 VRB3      29.89R
OMAHA NE       CLOUDY    63  61  93 SE8       29.84S FOG
DES MOINES IA  CLOUDY    63  60  90 SE13      29.88F FOG
DAVENPORT IA   RAIN      61  57  87 E13       30.03F FOG
CHICAGO IL     CLOUDY    69  53  56 E8        30.15S
EAU CLAIRE WI  CLOUDY    67  50  54 S16       30.08S
LA CROSSE WI   LGT RAIN  61  57  87 SE6       30.09F
$$

  *****  SOME NATIONAL WEATHER *****

CITY           SKY/WX    TMP DP  RH WIND       PRES   REMARKS
LA GUARDIA NY  PTSUNNY   75  41  29 SW9G16    30.32F
RALEIGH NC     MOSUNNY   77  60  55 SW9       30.41F
ATLANTA GA     PTSUNNY   76  63  64 S9        30.34F
NEW ORLEANS LA PTSUNNY   85  71  63 S18       30.09F HX  90
OKLAHOMA CITY  CLOUDY    64  61  90 SE9       29.89S
ALBUQUERQUE NM MOSUNNY   58  36  43 SW5       30.00F
SALT LAKE CITY LGT RAIN  52  47  83 NE6       29.96S
LOS ANGELES CA PTSUNNY   60  51  72 W7        30.03S
BOISE ID       SUNNY     62  52  69 W3        29.95S
SEATTLE WA     CLOUDY    53  49  86 SW5       30.15F
$$

*** WEATHER ACROSS MANITOBA...SASKATCHEWAN AND ONTARIO ***
                ***ONTARIO***

CITY           SKY/WX    TMP DP  RH WIND       PRES   REMARKS
GERALDTON      PTSUNNY   66  43  42 NW3       30.01F
THUNDER BAY    MOSUNNY   79  43  27 SW7       30.03F
SIOUX LOOKOUT  MOSUNNY   68  45  42 VRB2      30.04S
TORONTO        PTSUNNY   79  43  27 W12G17    30.21F
BIG TROUT LK   SUNNY     61  30  31 W12G20    29.93F
PICKLE LAKE    MOSUNNY   63  27  25 W6        30.02F
DRYDEN         SUNNY     73  43  33 SW9       30.04S
KENORA         MOSUNNY   73  52  46 SW6       30.05F
$$
                *** MANITOBA***

CITY           SKY/WX    TMP DP  RH WIND       PRES   REMARKS
BRANDON        SUNNY     72  48  43 W7        30.04F
DAUPHIN        SUNNY     64  46  52 CALM      30.05F
ISLAND LAKE    MOSUNNY   61  30  31 W8        30.02F
PILOT MOUND      N/A     72  39  30 W3          N/A
THE PAS        MOSUNNY   66  39  37 N6        30.04F
THOMPSON       MOSUNNY   70  27  19 W13       29.95F
WINNIPEG       SUNNY     70  50  49 W8        30.03F
LYNN LAKE      SUNNY     70  27  19 W10G17    29.96F
CHURCHILL      PTSUNNY   37  30  75 N18G25    29.95R
$$
                ***SASKATCHEWAN***

CITY           SKY/WX    TMP DP  RH WIND       PRES   REMARKS
ESTEVAN        MOSUNNY   70  43  37 CALM      30.05S
KINDERSLEY     PTSUNNY   72  37  28 W6        30.07F
LLOYDMINSTER   MOSUNNY   70  41  35 E6        30.04S
PRINCE ALBERT  MOSUNNY   68  48  49 E3        30.03F
REGINA         MOSUNNY   73  45  35 N2        30.04F
YORKTON        SUNNY     68  48  49 VRB2      30.04F


USA.gov is the U.S. government's official web portal to all federal, state and local government web resources and services.